Private Wetterstation Wechselburg
Wetterdaten: Freitag, 24.02.2023
Datum Zeit Temp. +2m Bodentemp. Temp.+5cm Temp. Wind Windchill X Diff Temp. Feuchte +2m Feuchte +5cm Luftdruck Regen Wind Richtung Richtung Sonnenschein Taupunkt Windchill Windben
24.02.2023 00:00 7,3 C 10,3 C -39,6 C 7,5 C 7,5 C 0,2 C 89 % 90 % 1011,1 hPa 0,0 l/m 0,2 km/h (0 Bft) W-SW 247 0 min 5,6 C 7,5 C 1,8 km/h (1 Bft)
24.02.2023 00:05 7,2 C 10,3 C -39,6 C 7,5 C 7,5 C 0,3 C 89 % 90 % 1011,5 hPa 0,0 l/m 0,2 km/h (0 Bft) N-NW 337 0 min 5,5 C 7,5 C 0,0 km/h (0 Bft)
24.02.2023 00:10 7,2 C 10,3 C -39,6 C 7,5 C 7,5 C 0,3 C 88 % 90 % 1011,5 hPa 0,0 l/m 0,0 km/h (0 Bft) N-NW 337 0 min 5,3 C 7,5 C 0,0 km/h (0 Bft)
24.02.2023 00:15 7,1 C 10,3 C -39,6 C 7,5 C 7,5 C 0,4 C 89 % 90 % 1011,5 hPa 0,0 l/m 0,0 km/h (0 Bft) N-NW 337 0 min 5,4 C 7,5 C 0,0 km/h (0 Bft)
24.02.2023 00:21 7,1 C 10,3 C -39,6 C 7,5 C 7,5 C 0,4 C 89 % 92 % 1011,5 hPa 0,0 l/m 0,0 km/h (0 Bft) W 270 0 min 5,4 C 7,5 C 0,0 km/h (0 Bft)
24.02.2023 00:25 7,0 C 10,3 C -39,6 C 7,4 C 7,4 C 0,4 C 89 % 92 % 1011,0 hPa 0,0 l/m 0,2 km/h (0 Bft) W-NW 292 0 min 5,3 C 7,4 C 4,5 km/h (1 Bft)
24.02.2023 00:32 7,1 C 10,3 C -39,6 C 7,4 C 7,4 C 0,3 C 89 % 92 % 1011,0 hPa 0,0 l/m 0,0 km/h (0 Bft) NW 315 0 min 5,4 C 7,4 C 0,0 km/h (0 Bft)
24.02.2023 00:33 7,1 C 10,3 C -39,6 C 7,4 C 7,4 C 0,3 C 89 % 92 % 1011,0 hPa 0,0 l/m 0,0 km/h (0 Bft) NW 315 0 min 5,4 C 7,4 C 0,0 km/h (0 Bft)
24.02.2023 00:34 7,1 C 10,3 C -39,6 C 7,4 C 7,4 C 0,3 C 89 % 92 % 1011,0 hPa 0,0 l/m 0,0 km/h (0 Bft) NW 315 0 min 5,4 C 7,4 C 0,0 km/h (0 Bft)
24.02.2023 00:35 7,1 C 10,3 C -39,6 C 7,4 C 7,4 C 0,3 C 89 % 92 % 1011,0 hPa 0,0 l/m 0,0 km/h (0 Bft) NW 315 0 min 5,4 C 7,4 C 0,0 km/h (0 Bft)
24.02.2023 00:36 7,1 C 10,3 C -39,6 C 7,4 C 7,4 C 0,3 C 89 % 92 % 1011,0 hPa 0,0 l/m 0,0 km/h (0 Bft) NW 315 0 min 5,4 C 7,4 C 0,0 km/h (0 Bft)
24.02.2023 00:38 7,0 C 10,3 C -39,6 C 7,4 C 7,4 C 0,4 C 89 % 92 % 1011,0 hPa 0,0 l/m 0,0 km/h (0 Bft) SW 225 0 min 5,3 C 7,4 C 0,0 km/h (0 Bft)
24.02.2023 00:40 7,0 C 10,3 C -39,6 C 7,4 C 7,4 C 0,4 C 89 % 92 % 1011,0 hPa 0,0 l/m 0,0 km/h (0 Bft) SW 225 0 min 5,3 C 7,4 C 0,0 km/h (0 Bft)
24.02.2023 00:45 6,9 C 10,3 C -39,6 C 7,3 C 7,3 C 0,4 C 89 % 92 % 1010,8 hPa 0,0 l/m 0,5 km/h (0 Bft) SO 135 0 min 5,2 C 7,3 C 4,8 km/h (1 Bft)
24.02.2023 00:50 6,9 C 10,3 C -39,6 C 7,2 C 7,2 C 0,3 C 89 % 92 % 1010,8 hPa 0,0 l/m 0,5 km/h (0 Bft) W-NW 292 0 min 5,2 C 7,2 C 0,0 km/h (0 Bft)
24.02.2023 00:55 6,9 C 10,3 C -39,6 C 7,2 C 7,2 C 0,3 C 89 % 90 % 1010,8 hPa 0,0 l/m 0,2 km/h (0 Bft) SW 225 0 min 5,2 C 7,2 C 0,0 km/h (0 Bft)
24.02.2023 01:00 6,8 C 10,3 C -39,6 C 7,1 C 7,1 C 0,3 C 89 % 90 % 1010,8 hPa 0,0 l/m 0,0 km/h (0 Bft) SW 225 0 min 5,1 C 7,1 C 0,0 km/h (0 Bft)
24.02.2023 01:05 6,7 C 10,3 C -39,6 C 7,1 C 7,1 C 0,4 C 89 % 90 % 1010,6 hPa 0,0 l/m 0,2 km/h (0 Bft) S-SW 202 0 min 5,0 C 7,1 C 2,6 km/h (1 Bft)
24.02.2023 01:10 6,7 C 10,3 C -39,6 C 7,1 C 7,1 C 0,4 C 89 % 90 % 1010,6 hPa 0,0 l/m 0,3 km/h (0 Bft) W-SW 247 0 min 5,0 C 7,1 C 0,0 km/h (0 Bft)
24.02.2023 01:15 6,6 C 10,3 C -39,6 C 7,0 C 7,0 C 0,4 C 89 % 90 % 1010,6 hPa 0,0 l/m 0,5 km/h (0 Bft) N-NW 337 0 min 4,9 C 7,0 C 0,0 km/h (0 Bft)
24.02.2023 01:20 6,7 C 10,3 C -39,6 C 7,0 C 7,0 C 0,3 C 89 % 90 % 1010,6 hPa 0,0 l/m 0,2 km/h (0 Bft) W-NW 292 0 min 5,0 C 7,0 C 0,0 km/h (0 Bft)
24.02.2023 01:25 6,5 C 10,3 C -39,6 C 6,9 C 6,9 C 0,4 C 89 % 90 % 1010,4 hPa 0,0 l/m 0,0 km/h (0 Bft) NW 315 0 min 4,8 C 6,9 C 0,0 km/h (0 Bft)
24.02.2023 01:30 6,5 C 10,3 C -39,6 C 6,8 C 6,8 C 0,3 C 89 % 90 % 1010,4 hPa 0,0 l/m 0,0 km/h (0 Bft) SW 225 0 min 4,8 C 6,8 C 0,0 km/h (0 Bft)
24.02.2023 01:35 6,5 C 10,3 C -39,6 C 6,8 C 6,8 C 0,3 C 89 % 90 % 1010,4 hPa 0,0 l/m 0,0 km/h (0 Bft) W-SW 247 0 min 4,8 C 6,8 C 0,0 km/h (0 Bft)
24.02.2023 01:40 6,4 C 10,3 C -39,6 C 6,8 C 6,8 C 0,4 C 89 % 90 % 1010,4 hPa 0,0 l/m 0,0 km/h (0 Bft) S-SW 202 0 min 4,7 C 6,8 C 0,0 km/h (0 Bft)
24.02.2023 01:45 6,4 C 10,3 C -39,6 C 6,8 C 6,8 C 0,4 C 89 % 90 % 1010,6 hPa 0,0 l/m 0,2 km/h (0 Bft) S-SW 202 0 min 4,7 C 6,8 C 0,0 km/h (0 Bft)
24.02.2023 01:50 6,4 C 10,3 C -39,6 C 6,8 C 6,8 C 0,4 C 89 % 90 % 1010,6 hPa 0,0 l/m 0,3 km/h (0 Bft) SW 225 0 min 4,7 C 6,8 C 2,1 km/h (1 Bft)
24.02.2023 01:55 6,3 C 10,3 C -39,6 C 6,8 C 6,8 C 0,5 C 89 % 90 % 1010,6 hPa 0,0 l/m 0,3 km/h (0 Bft) W-SW 247 0 min 4,6 C 6,8 C 0,0 km/h (0 Bft)
24.02.2023 02:00 6,3 C 10,3 C -39,6 C 6,7 C 6,7 C 0,4 C 89 % 90 % 1010,6 hPa 0,0 l/m 0,6 km/h (0 Bft) W-SW 247 0 min 4,6 C 6,7 C 2,1 km/h (1 Bft)
24.02.2023 02:05 6,3 C 10,3 C -39,6 C 6,5 C 6,5 C 0,2 C 89 % 90 % 1010,5 hPa 0,0 l/m 1,1 km/h (1 Bft) W-SW 247 0 min 4,6 C 6,5 C 7,2 km/h (2 Bft)
24.02.2023 02:11 6,1 C 10,3 C -39,6 C 6,5 C 6,5 C 0,4 C 89 % 88 % 1010,5 hPa 0,0 l/m 0,3 km/h (0 Bft) N 0 0 min 4,4 C 6,5 C 0,0 km/h (0 Bft)
24.02.2023 02:26 6,0 C 10,3 C -39,6 C 6,4 C 6,4 C 0,4 C 89 % 89 % 1010,6 hPa 0,0 l/m 0,0 km/h (0 Bft) W-SW 247 0 min 4,3 C 6,4 C 0,0 km/h (0 Bft)
24.02.2023 02:42 5,8 C 10,3 C -39,6 C 6,2 C 6,2 C 0,4 C 89 % 89 % 1009,9 hPa 0,0 l/m 0,0 km/h (0 Bft) NW 315 0 min 4,1 C 6,2 C 0,0 km/h (0 Bft)
24.02.2023 02:55 5,9 C 10,3 C -39,6 C 6,2 C 6,2 C 0,3 C 89 % 89 % 1009,9 hPa 0,0 l/m 0,2 km/h (0 Bft) NW 315 0 min 4,2 C 6,2 C 1,6 km/h (1 Bft)
24.02.2023 03:00 5,8 C 10,3 C -39,6 C 6,2 C 6,2 C 0,4 C 89 % 88 % 1009,9 hPa 0,0 l/m 0,0 km/h (0 Bft) SW 225 0 min 4,1 C 6,2 C 0,0 km/h (0 Bft)
24.02.2023 03:05 5,7 C 10,3 C -39,6 C 6,2 C 6,2 C 0,5 C 89 % 88 % 1009,8 hPa 0,0 l/m 0,0 km/h (0 Bft) SW 225 0 min 4,0 C 6,2 C 0,0 km/h (0 Bft)
24.02.2023 03:10 5,7 C 10,3 C -39,6 C 6,2 C 6,2 C 0,5 C 89 % 88 % 1009,8 hPa 0,0 l/m 0,2 km/h (0 Bft) SW 225 0 min 4,0 C 6,2 C 0,0 km/h (0 Bft)
24.02.2023 03:15 5,7 C 10,3 C -39,6 C 6,2 C 6,2 C 0,5 C 89 % 88 % 1009,8 hPa 0,0 l/m 0,3 km/h (0 Bft) S 180 0 min 4,0 C 6,2 C 0,0 km/h (0 Bft)
24.02.2023 03:20 5,6 C 10,3 C -39,6 C 6,2 C 6,2 C 0,6 C 89 % 88 % 1009,8 hPa 0,0 l/m 0,2 km/h (0 Bft) SW 225 0 min 3,9 C 6,2 C 2,4 km/h (1 Bft)
24.02.2023 03:25 5,6 C 10,3 C -39,6 C 6,2 C 6,2 C 0,6 C 89 % 88 % 1009,5 hPa 0,0 l/m 1,3 km/h (1 Bft) W-SW 247 0 min 3,9 C 6,2 C 6,3 km/h (2 Bft)
24.02.2023 03:30 5,6 C 10,3 C -39,6 C 6,2 C 6,2 C 0,6 C 89 % 88 % 1009,5 hPa 0,0 l/m 2,1 km/h (1 Bft) SW 225 0 min 3,9 C 6,2 C 3,9 km/h (1 Bft)
24.02.2023 03:35 5,7 C 10,3 C -39,6 C 6,2 C 6,2 C 0,5 C 89 % 88 % 1009,5 hPa 0,0 l/m 1,9 km/h (1 Bft) W 270 0 min 4,0 C 6,2 C 3,1 km/h (1 Bft)
24.02.2023 03:40 5,6 C 10,3 C -39,6 C 6,2 C 6,2 C 0,6 C 89 % 88 % 1009,5 hPa 0,0 l/m 1,1 km/h (1 Bft) SW 225 0 min 3,9 C 6,2 C 1,6 km/h (1 Bft)
24.02.2023 03:45 5,6 C 10,2 C -39,6 C 6,1 C 6,1 C 0,5 C 89 % 88 % 1010,1 hPa 0,0 l/m 0,5 km/h (0 Bft) S-SW 202 0 min 3,9 C 6,1 C 0,0 km/h (0 Bft)
24.02.2023 03:50 5,5 C 10,2 C -39,6 C 6,1 C 6,1 C 0,6 C 89 % 88 % 1010,1 hPa 0,0 l/m 0,3 km/h (0 Bft) W 270 0 min 3,8 C 6,1 C 0,0 km/h (0 Bft)
24.02.2023 03:55 5,4 C 10,2 C -39,6 C 6,0 C 6,0 C 0,6 C 89 % 88 % 1010,1 hPa 0,0 l/m 0,6 km/h (0 Bft) S 180 0 min 3,7 C 6,0 C 0,0 km/h (0 Bft)
24.02.2023 04:00 5,5 C 10,2 C -39,6 C 5,9 C 5,9 C 0,4 C 89 % 90 % 1010,1 hPa 0,0 l/m 0,8 km/h (0 Bft) SW 225 0 min 3,8 C 5,9 C 0,0 km/h (0 Bft)
24.02.2023 04:05 5,3 C 10,2 C -39,6 C 5,9 C 5,9 C 0,6 C 89 % 90 % 1009,4 hPa 0,0 l/m 0,3 km/h (0 Bft) W-SW 247 0 min 3,6 C 5,9 C 0,0 km/h (0 Bft)
24.02.2023 04:11 5,2 C 10,2 C -39,6 C 5,8 C 5,8 C 0,6 C 89 % 90 % 1009,4 hPa 0,0 l/m 0,5 km/h (0 Bft) N 0 0 min 3,5 C 5,8 C 0,0 km/h (0 Bft)
24.02.2023 04:26 5,2 C 10,2 C -39,6 C 5,7 C 5,7 C 0,5 C 89 % 90 % 1009,2 hPa 0,0 l/m 0,2 km/h (0 Bft) S 180 0 min 3,5 C 5,7 C 0,0 km/h (0 Bft)
24.02.2023 04:42 5,1 C 10,2 C -39,6 C 5,6 C 5,6 C 0,5 C 89 % 89 % 1009,0 hPa 0,0 l/m 0,2 km/h (0 Bft) W-SW 247 0 min 3,4 C 5,6 C 2,3 km/h (1 Bft)
24.02.2023 04:55 5,0 C 10,2 C -39,6 C 5,6 C 5,6 C 0,6 C 89 % 89 % 1009,0 hPa 0,7 l/m 0,6 km/h (0 Bft) S-SW 202 0 min 3,3 C 5,6 C 0,0 km/h (0 Bft)
24.02.2023 05:00 4,9 C 10,2 C -39,6 C 5,5 C 5,5 C 0,6 C 89 % 90 % 1009,0 hPa 0,0 l/m 0,5 km/h (0 Bft) O-SO 112 0 min 3,2 C 5,5 C 0,0 km/h (0 Bft)
24.02.2023 05:05 4,9 C 10,2 C -39,6 C 5,5 C 5,5 C 0,6 C 89 % 91 % 1008,8 hPa 0,0 l/m 0,5 km/h (0 Bft) SW 225 0 min 3,2 C 5,5 C 0,0 km/h (0 Bft)
24.02.2023 05:10 4,9 C 10,2 C -39,6 C 5,5 C 5,5 C 0,6 C 89 % 91 % 1008,8 hPa 0,0 l/m 0,3 km/h (0 Bft) W-SW 247 0 min 3,2 C 5,5 C 2,6 km/h (1 Bft)
24.02.2023 05:15 4,8 C 10,2 C -39,6 C 5,5 C 5,5 C 0,7 C 89 % 91 % 1008,8 hPa 0,0 l/m 0,5 km/h (0 Bft) W 270 0 min 3,1 C 5,5 C 0,0 km/h (0 Bft)
24.02.2023 05:20 4,8 C 10,2 C -39,6 C 5,4 C 5,4 C 0,6 C 89 % 91 % 1008,8 hPa 0,0 l/m 1,0 km/h (0 Bft) SW 225 0 min 3,1 C 5,4 C 2,4 km/h (1 Bft)
24.02.2023 05:25 4,7 C 10,2 C -39,6 C 5,1 C 5,1 C 0,4 C 89 % 91 % 1008,7 hPa 0,0 l/m 1,3 km/h (1 Bft) W-SW 247 0 min 3,0 C 5,1 C 0,0 km/h (0 Bft)
24.02.2023 05:30 4,5 C 10,1 C -39,6 C 5,0 C 5,0 C 0,5 C 89 % 91 % 1008,7 hPa 0,0 l/m 1,1 km/h (1 Bft) N 360 0 min 2,8 C 5,0 C 0,0 km/h (0 Bft)
24.02.2023 05:35 4,4 C 10,1 C -39,6 C 4,7 C 4,7 C 0,3 C 89 % 90 % 1008,7 hPa 0,0 l/m 0,6 km/h (0 Bft) W-SW 247 0 min 2,7 C 4,7 C 4,8 km/h (1 Bft)
24.02.2023 05:40 4,3 C 10,1 C -39,6 C 4,6 C 4,6 C 0,3 C 89 % 90 % 1008,7 hPa 0,0 l/m 0,8 km/h (0 Bft) W-NW 292 0 min 2,7 C 4,6 C 0,0 km/h (0 Bft)
24.02.2023 05:45 4,3 C 10,1 C -39,6 C 4,4 C 4,4 C 0,1 C 89 % 90 % 1008,6 hPa 0,0 l/m 0,8 km/h (0 Bft) SW 225 0 min 2,7 C 4,4 C 3,7 km/h (1 Bft)
24.02.2023 05:50 4,1 C 10,1 C -39,6 C 4,2 C 4,2 C 0,1 C 89 % 90 % 1008,6 hPa 0,0 l/m 0,2 km/h (0 Bft) W-SW 247 0 min 2,5 C 4,2 C 3,2 km/h (1 Bft)
24.02.2023 05:55 4,0 C 10,1 C -39,6 C 4,0 C 4,0 C 0,0 C 89 % 90 % 1008,6 hPa 0,0 l/m 0,8 km/h (0 Bft) W 270 0 min 2,4 C 4,0 C 2,4 km/h (1 Bft)
24.02.2023 06:00 3,9 C 10,1 C -39,6 C 4,0 C 4,0 C 0,1 C 89 % 90 % 1008,6 hPa 0,0 l/m 0,6 km/h (0 Bft) S-SW 202 0 min 2,3 C 4,0 C 0,0 km/h (0 Bft)
24.02.2023 06:05 3,9 C 10,1 C -39,6 C 3,9 C 3,9 C 0,0 C 89 % 90 % 1008,3 hPa 0,0 l/m 0,3 km/h (0 Bft) W-SW 247 0 min 2,3 C 3,9 C 2,6 km/h (1 Bft)
24.02.2023 06:11 3,7 C 10,1 C -39,6 C 3,8 C 3,8 C 0,1 C 89 % 89 % 1008,3 hPa 0,0 l/m 0,2 km/h (0 Bft) N 0 0 min 2,1 C 3,8 C 2,3 km/h (1 Bft)
24.02.2023 06:32 3,6 C 10,0 C -39,6 C 3,7 C 3,7 C 0,1 C 89 % 90 % 1008,6 hPa 0,0 l/m 0,0 km/h (0 Bft) NW 315 0 min 2,0 C 3,7 C 0,0 km/h (0 Bft)
24.02.2023 06:33 3,6 C 10,0 C -39,6 C 3,7 C 3,7 C 0,1 C 89 % 90 % 1008,6 hPa 0,0 l/m 0,0 km/h (0 Bft) NW 315 0 min 2,0 C 3,7 C 0,0 km/h (0 Bft)
24.02.2023 06:35 3,6 C 10,0 C -39,6 C 3,7 C 3,7 C 0,1 C 89 % 90 % 1008,6 hPa 0,0 l/m 0,0 km/h (0 Bft) NW 315 0 min 2,0 C 3,7 C 0,0 km/h (0 Bft)
24.02.2023 06:40 3,5 C 10,0 C -39,6 C 3,7 C 3,7 C 0,2 C 89 % 90 % 1008,6 hPa 0,0 l/m 0,0 km/h (0 Bft) NW 315 0 min 1,9 C 3,7 C 0,0 km/h (0 Bft)
24.02.2023 06:45 3,5 C 10,0 C -39,6 C 3,6 C 3,6 C 0,1 C 89 % 90 % 1007,9 hPa 0,0 l/m 0,0 km/h (0 Bft) N-NW 337 0 min 1,9 C 3,6 C 0,0 km/h (0 Bft)
24.02.2023 06:50 3,5 C 10,0 C -39,6 C 3,7 C 3,7 C 0,2 C 89 % 90 % 1007,9 hPa 0,0 l/m 0,0 km/h (0 Bft) N-NW 337 0 min 1,9 C 3,7 C 0,0 km/h (0 Bft)
24.02.2023 06:55 3,3 C 10,0 C -39,6 C 3,6 C 3,6 C 0,3 C 89 % 90 % 1007,9 hPa 0,0 l/m 0,5 km/h (0 Bft) NW 315 0 min 1,7 C 3,6 C 0,0 km/h (0 Bft)
24.02.2023 07:00 3,3 C 10,0 C -39,6 C 3,6 C 3,6 C 0,3 C 89 % 90 % 1007,9 hPa 0,0 l/m 0,5 km/h (0 Bft) SW 225 0 min 1,7 C 3,6 C 0,0 km/h (0 Bft)
24.02.2023 07:05 3,3 C 10,0 C -39,6 C 3,6 C 3,6 C 0,3 C 89 % 90 % 1007,9 hPa 0,0 l/m 0,2 km/h (0 Bft) W-SW 247 0 min 1,7 C 3,6 C 0,0 km/h (0 Bft)
24.02.2023 07:10 3,2 C 10,0 C -39,6 C 3,5 C 3,5 C 0,3 C 89 % 90 % 1007,9 hPa 0,0 l/m 0,3 km/h (0 Bft) W 270 0 min 1,6 C 3,5 C 2,9 km/h (1 Bft)
24.02.2023 07:15 3,2 C 10,0 C -39,6 C 3,5 C 3,5 C 0,3 C 89 % 90 % 1007,9 hPa 0,0 l/m 0,3 km/h (0 Bft) NW 315 0 min 1,6 C 3,5 C 0,0 km/h (0 Bft)
24.02.2023 07:20 3,2 C 10,0 C -39,6 C 3,5 C 3,5 C 0,3 C 89 % 90 % 1007,9 hPa 0,0 l/m 0,3 km/h (0 Bft) W 270 5 min 1,6 C 3,5 C 0,0 km/h (0 Bft)
24.02.2023 07:25 3,1 C 9,9 C -39,6 C 3,5 C 3,5 C 0,4 C 89 % 88 % 1007,6 hPa 0,0 l/m 0,2 km/h (0 Bft) N-NW 337 5 min 1,5 C 3,5 C 0,0 km/h (0 Bft)
24.02.2023 07:30 3,1 C 9,9 C -39,6 C 3,4 C 3,4 C 0,3 C 89 % 88 % 1007,6 hPa 0,0 l/m 0,2 km/h (0 Bft) W 270 0 min 1,5 C 3,4 C 0,0 km/h (0 Bft)
24.02.2023 07:35 3,1 C 9,9 C -39,6 C 3,4 C 3,4 C 0,3 C 89 % 88 % 1007,6 hPa 0,0 l/m 0,3 km/h (0 Bft) W 270 0 min 1,5 C 3,4 C 1,8 km/h (1 Bft)
24.02.2023 07:40 3,1 C 9,9 C -39,6 C 3,3 C 3,3 C 0,2 C 89 % 87 % 1007,6 hPa 0,0 l/m 0,5 km/h (0 Bft) SW 225 0 min 1,5 C 3,3 C 0,0 km/h (0 Bft)
24.02.2023 07:45 2,9 C 9,9 C -39,6 C 3,2 C 3,2 C 0,3 C 89 % 87 % 1007,8 hPa 0,0 l/m 0,5 km/h (0 Bft) NW 315 0 min 1,3 C 3,2 C 0,0 km/h (0 Bft)
24.02.2023 07:50 2,9 C 9,9 C -39,6 C 3,2 C 3,2 C 0,3 C 89 % 87 % 1007,8 hPa 0,0 l/m 0,0 km/h (0 Bft) W 270 0 min 1,3 C 3,2 C 0,0 km/h (0 Bft)
24.02.2023 07:55 2,8 C 9,9 C -39,6 C 3,2 C 3,2 C 0,4 C 89 % 87 % 1007,8 hPa 0,0 l/m 0,2 km/h (0 Bft) S-SW 202 0 min 1,2 C 3,2 C 0,0 km/h (0 Bft)
24.02.2023 08:00 2,8 C 9,9 C -39,6 C 3,2 C 3,2 C 0,4 C 89 % 87 % 1007,8 hPa 0,0 l/m 0,0 km/h (0 Bft) SW 225 0 min 1,2 C 3,2 C 0,0 km/h (0 Bft)
24.02.2023 08:05 2,8 C 9,9 C -39,6 C 3,2 C 3,2 C 0,4 C 89 % 90 % 1007,8 hPa 0,0 l/m 0,0 km/h (0 Bft) W-SW 247 0 min 1,2 C 3,2 C 0,0 km/h (0 Bft)
24.02.2023 08:11 2,8 C 9,9 C -39,6 C 3,3 C 3,3 C 0,5 C 89 % 90 % 1007,8 hPa 0,0 l/m 0,0 km/h (0 Bft) NW 315 0 min 1,2 C 3,3 C 0,0 km/h (0 Bft)
24.02.2023 08:15 2,9 C 9,9 C -39,6 C 3,3 C 3,3 C 0,4 C 89 % 88 % 1007,8 hPa 0,0 l/m 0,0 km/h (0 Bft) N 0 0 min 1,3 C 3,3 C 0,0 km/h (0 Bft)
24.02.2023 08:16 2,8 C 9,9 C -39,6 C 3,3 C 3,3 C 0,5 C 89 % 88 % 1007,8 hPa 0,0 l/m 0,0 km/h (0 Bft) W-SW 247 0 min 1,2 C 3,3 C 0,0 km/h (0 Bft)
24.02.2023 08:21 2,8 C 9,9 C -39,6 C 3,3 C 3,3 C 0,5 C 89 % 88 % 1007,5 hPa 0,0 l/m 0,0 km/h (0 Bft) N-NW 337 0 min 1,2 C 3,3 C 0,0 km/h (0 Bft)
24.02.2023 08:26 2,7 C 9,8 C -39,6 C 3,3 C 3,3 C 0,6 C 89 % 88 % 1007,5 hPa 0,0 l/m 0,2 km/h (0 Bft) NW 315 0 min 1,1 C 3,3 C 0,0 km/h (0 Bft)
24.02.2023 08:31 2,7 C 9,8 C -39,6 C 3,3 C 3,3 C 0,6 C 89 % 88 % 1007,5 hPa 0,0 l/m 0,2 km/h (0 Bft) NW 315 0 min 1,1 C 3,3 C 0,0 km/h (0 Bft)
24.02.2023 08:36 2,7 C 9,8 C -39,6 C 3,3 C 3,3 C 0,6 C 89 % 88 % 1007,5 hPa 0,0 l/m 0,0 km/h (0 Bft) N 360 0 min 1,1 C 3,3 C 0,0 km/h (0 Bft)
24.02.2023 08:40 2,7 C 9,8 C -39,6 C 3,3 C 3,3 C 0,6 C 89 % 88 % 1007,5 hPa 0,0 l/m 0,0 km/h (0 Bft) N 360 0 min 1,1 C 3,3 C 0,0 km/h (0 Bft)
24.02.2023 08:45 2,7 C 9,8 C -39,6 C 3,3 C 3,3 C 0,6 C 89 % 88 % 1007,2 hPa 0,0 l/m 0,0 km/h (0 Bft) W 270 0 min 1,1 C 3,3 C 0,0 km/h (0 Bft)
24.02.2023 08:50 2,7 C 9,8 C -39,6 C 3,2 C 3,2 C 0,5 C 89 % 88 % 1007,2 hPa 0,0 l/m 0,0 km/h (0 Bft) W-SW 247 0 min 1,1 C 3,2 C 0,0 km/h (0 Bft)
24.02.2023 08:55 2,7 C 9,8 C -39,6 C 3,2 C 3,2 C 0,5 C 89 % 89 % 1007,2 hPa 0,0 l/m 0,0 km/h (0 Bft) S-SO 157 0 min 1,1 C 3,2 C 0,0 km/h (0 Bft)
24.02.2023 09:00 2,7 C 9,8 C -39,6 C 3,2 C 3,2 C 0,5 C 89 % 89 % 1007,2 hPa 0,0 l/m 0,0 km/h (0 Bft) S-SO 157 0 min 1,1 C 3,2 C 0,0 km/h (0 Bft)
24.02.2023 09:05 2,5 C 9,8 C -39,6 C 3,2 C 3,2 C 0,7 C 89 % 89 % 1007,2 hPa 0,0 l/m 0,0 km/h (0 Bft) O-SO 112 0 min 0,9 C 3,2 C 0,0 km/h (0 Bft)
24.02.2023 09:10 2,5 C 9,8 C -39,6 C 3,1 C 3,1 C 0,6 C 89 % 89 % 1007,2 hPa 0,0 l/m 0,0 km/h (0 Bft) O-SO 112 0 min 0,9 C 3,1 C 0,0 km/h (0 Bft)
24.02.2023 09:15 2,5 C 9,7 C -39,6 C 3,1 C 3,1 C 0,6 C 89 % 90 % 1007,2 hPa 0,7 l/m 0,0 km/h (0 Bft) NO 45 0 min 0,9 C 3,1 C 0,0 km/h (0 Bft)
24.02.2023 09:20 2,4 C 9,7 C -39,6 C 3,0 C 3,0 C 0,6 C 89 % 90 % 1007,2 hPa 0,0 l/m 0,0 km/h (0 Bft) NO 45 0 min 0,8 C 3,0 C 0,0 km/h (0 Bft)
24.02.2023 09:25 2,4 C 9,7 C -39,6 C 2,9 C 2,9 C 0,5 C 89 % 90 % 1007,1 hPa 0,0 l/m 0,0 km/h (0 Bft) SW 225 0 min 0,8 C 2,9 C 0,0 km/h (0 Bft)
24.02.2023 09:30 2,5 C 9,7 C -39,6 C 2,9 C 2,9 C 0,4 C 89 % 89 % 1007,1 hPa 0,0 l/m 0,3 km/h (0 Bft) SW 225 0 min 0,9 C 2,9 C 0,0 km/h (0 Bft)
24.02.2023 09:35 2,4 C 9,7 C -39,6 C 2,8 C 2,8 C 0,4 C 89 % 89 % 1007,1 hPa 0,0 l/m 0,5 km/h (0 Bft) SW 225 0 min 0,8 C 2,8 C 2,6 km/h (1 Bft)
24.02.2023 09:40 2,3 C 9,7 C -39,6 C 2,8 C 2,8 C 0,5 C 89 % 89 % 1007,1 hPa 0,0 l/m 0,3 km/h (0 Bft) SW 225 0 min 0,7 C 2,8 C 0,0 km/h (0 Bft)
24.02.2023 09:45 2,3 C 9,7 C -39,6 C 2,8 C 2,8 C 0,5 C 89 % 89 % 1007,1 hPa 0,0 l/m 0,2 km/h (0 Bft) W-SW 247 0 min 0,7 C 2,8 C 0,0 km/h (0 Bft)
24.02.2023 09:50 2,3 C 9,7 C -39,6 C 2,8 C 2,8 C 0,5 C 89 % 89 % 1007,1 hPa 0,0 l/m 0,0 km/h (0 Bft) W-SW 247 0 min 0,7 C 2,8 C 0,0 km/h (0 Bft)
24.02.2023 09:55 2,3 C 9,7 C -39,6 C 2,9 C 2,9 C 0,6 C 89 % 89 % 1007,1 hPa 0,0 l/m 0,0 km/h (0 Bft) W-SW 247 0 min 0,7 C 2,9 C 0,0 km/h (0 Bft)
24.02.2023 10:00 2,3 C 9,7 C -39,6 C 3,0 C 3,0 C 0,7 C 89 % 87 % 1007,1 hPa 0,0 l/m 0,0 km/h (0 Bft) SW 225 0 min 0,7 C 3,0 C 0,0 km/h (0 Bft)
24.02.2023 10:05 2,2 C 9,7 C -39,6 C 3,1 C 3,1 C 0,9 C 89 % 86 % 1006,9 hPa 0,0 l/m 0,2 km/h (0 Bft) W 270 0 min 0,6 C 3,1 C 0,0 km/h (0 Bft)
24.02.2023 10:11 2,4 C 9,7 C -39,6 C 3,9 C 3,9 C 1,5 C 89 % 86 % 1006,9 hPa 0,0 l/m 0,2 km/h (0 Bft) N 0 0 min 0,8 C 3,9 C 0,0 km/h (0 Bft)
24.02.2023 10:31 2,5 C 9,6 C -39,6 C 3,9 C 3,9 C 1,4 C 89 % 87 % 1006,6 hPa 0,0 l/m 0,5 km/h (0 Bft) SW 225 0 min 0,9 C 3,9 C 0,0 km/h (0 Bft)
24.02.2023 10:33 2,5 C 9,6 C -39,6 C 3,9 C 3,9 C 1,4 C 89 % 87 % 1006,6 hPa 0,0 l/m 0,5 km/h (0 Bft) SW 225 0 min 0,9 C 3,9 C 0,0 km/h (0 Bft)
24.02.2023 10:35 2,5 C 9,6 C -39,6 C 3,9 C 3,9 C 1,4 C 89 % 87 % 1006,6 hPa 0,0 l/m 0,5 km/h (0 Bft) SW 225 0 min 0,9 C 3,9 C 0,0 km/h (0 Bft)
24.02.2023 10:40 2,5 C 9,6 C -39,6 C 4,0 C 4,0 C 1,5 C 89 % 87 % 1006,6 hPa 0,0 l/m 0,2 km/h (0 Bft) S-SO 157 0 min 0,9 C 4,0 C 1,8 km/h (1 Bft)
24.02.2023 10:45 2,7 C 9,5 C -39,6 C 4,0 C 4,0 C 1,3 C 89 % 86 % 1006,2 hPa 0,0 l/m 0,3 km/h (0 Bft) SO 135 0 min 1,1 C 4,0 C 0,0 km/h (0 Bft)
24.02.2023 10:50 2,7 C 9,6 C -39,6 C 4,3 C 4,3 C 1,6 C 89 % 86 % 1006,2 hPa 0,0 l/m 0,5 km/h (0 Bft) SW 225 0 min 1,1 C 4,3 C 2,7 km/h (1 Bft)
24.02.2023 10:55 2,8 C 9,5 C -39,6 C 5,0 C 5,0 C 2,2 C 89 % 86 % 1006,2 hPa 0,0 l/m 0,6 km/h (0 Bft) S 180 0 min 1,2 C 5,0 C 1,8 km/h (1 Bft)
24.02.2023 11:00 2,8 C 9,5 C -39,6 C 5,1 C 5,1 C 2,3 C 89 % 86 % 1006,2 hPa 0,0 l/m 1,0 km/h (0 Bft) S 180 0 min 1,2 C 5,1 C 3,5 km/h (1 Bft)
24.02.2023 11:05 3,0 C 9,5 C -39,6 C 4,9 C 4,9 C 1,9 C 89 % 86 % 1006,0 hPa 0,0 l/m 1,3 km/h (1 Bft) S 180 0 min 1,4 C 4,9 C 4,7 km/h (1 Bft)
24.02.2023 11:10 3,0 C 9,5 C -39,6 C 4,8 C 4,8 C 1,8 C 89 % 86 % 1006,0 hPa 0,0 l/m 2,3 km/h (1 Bft) S-SO 157 0 min 1,4 C 4,8 C 6,8 km/h (2 Bft)
24.02.2023 11:15 3,1 C 9,5 C -39,6 C 4,5 C 4,5 C 1,4 C 89 % 86 % 1006,0 hPa 0,0 l/m 3,4 km/h (1 Bft) S-SO 157 0 min 1,5 C 4,5 C 7,9 km/h (2 Bft)
24.02.2023 11:20 3,1 C 9,6 C -39,6 C 4,9 C 4,9 C 1,8 C 89 % 85 % 1006,0 hPa 0,0 l/m 3,1 km/h (1 Bft) O-SO 112 0 min 1,5 C 4,9 C 0,0 km/h (0 Bft)
24.02.2023 11:25 3,2 C 9,5 C -39,6 C 5,4 C 5,4 C 2,2 C 89 % 85 % 1005,9 hPa 0,0 l/m 2,6 km/h (1 Bft) S 180 0 min 1,6 C 5,4 C 3,9 km/h (1 Bft)
24.02.2023 11:30 3,3 C 9,5 C -39,6 C 5,6 C 5,6 C 2,3 C 89 % 85 % 1005,9 hPa 0,0 l/m 2,6 km/h (1 Bft) S 180 0 min 1,7 C 5,6 C 6,1 km/h (2 Bft)
24.02.2023 11:35 3,3 C 9,5 C -39,6 C 5,9 C 5,9 C 2,6 C 89 % 85 % 1005,9 hPa 0,0 l/m 2,4 km/h (1 Bft) SW 225 0 min 1,7 C 5,9 C 0,0 km/h (0 Bft)
24.02.2023 11:40 3,5 C 9,5 C -39,6 C 6,1 C 6,1 C 2,6 C 89 % 85 % 1005,9 hPa 0,0 l/m 3,2 km/h (1 Bft) S 180 0 min 1,9 C 6,1 C 6,9 km/h (2 Bft)
24.02.2023 11:41 3,5 C 9,5 C 0,0 C 6,0 C 6,0 C 2,5 C 89 % 0 % 1005,4 hPa 0,0 l/m 2,4 km/h (1 Bft) O 90 0 min 1,9 C 6,0 C 3,1 km/h (1 Bft)
24.02.2023 11:46 3,6 C 9,5 C 0,0 C 6,2 C 6,2 C 2,6 C 89 % 0 % 1005,4 hPa 0,0 l/m 1,9 km/h (1 Bft) SW 225 0 min 2,0 C 6,2 C 2,1 km/h (1 Bft)
24.02.2023 11:51 3,7 C 9,5 C -39,6 C 6,3 C 6,3 C 2,6 C 89 % 86 % 1005,4 hPa 0,0 l/m 1,6 km/h (1 Bft) SO 135 0 min 2,1 C 6,3 C 0,0 km/h (0 Bft)
24.02.2023 11:56 3,9 C 9,4 C -39,6 C 6,7 C 6,7 C 2,8 C 89 % 86 % 1005,4 hPa 0,0 l/m 1,3 km/h (1 Bft) SO 135 0 min 2,3 C 6,7 C 1,8 km/h (1 Bft)
24.02.2023 12:01 4,0 C 9,4 C -39,6 C 7,5 C 7,5 C 3,5 C 89 % 86 % 1005,2 hPa 0,0 l/m 1,0 km/h (0 Bft) SW 225 5 min 2,4 C 7,5 C 0,0 km/h (0 Bft)
24.02.2023 12:06 4,3 C 9,4 C -39,6 C 8,1 C 8,1 C 3,8 C 89 % 86 % 1005,2 hPa 0,0 l/m 1,0 km/h (0 Bft) S 180 5 min 2,7 C 8,1 C 1,9 km/h (1 Bft)
24.02.2023 12:11 4,5 C 9,4 C -39,6 C 8,5 C 8,5 C 4,0 C 89 % 86 % 1005,2 hPa 0,0 l/m 2,1 km/h (1 Bft) O-SO 112 5 min 2,8 C 8,5 C 4,7 km/h (1 Bft)
24.02.2023 12:16 4,6 C 9,4 C -39,6 C 8,2 C 8,2 C 3,6 C 89 % 86 % 1005,2 hPa 0,0 l/m 3,4 km/h (1 Bft) W-SW 247 5 min 2,9 C 8,2 C 4,5 km/h (1 Bft)
24.02.2023 12:21 4,7 C 9,3 C -39,6 C 7,4 C 7,4 C 2,7 C 89 % 86 % 1004,8 hPa 0,0 l/m 4,5 km/h (1 Bft) SW 225 0 min 3,0 C 7,4 C 7,7 km/h (2 Bft)
24.02.2023 12:26 4,8 C 9,3 C -39,6 C 7,7 C 7,7 C 2,9 C 89 % 83 % 1004,8 hPa 0,0 l/m 4,3 km/h (1 Bft) W-SW 247 0 min 3,1 C 7,7 C 8,2 km/h (2 Bft)
24.02.2023 12:31 5,1 C 9,2 C -39,6 C 7,9 C 7,9 C 2,8 C 89 % 83 % 1004,8 hPa 0,0 l/m 4,3 km/h (1 Bft) SW 225 0 min 3,4 C 7,9 C 7,1 km/h (2 Bft)
24.02.2023 12:35 5,1 C 9,2 C -39,6 C 7,9 C 7,9 C 2,8 C 89 % 83 % 1004,8 hPa 0,0 l/m 4,3 km/h (1 Bft) SW 225 0 min 3,4 C 7,9 C 7,1 km/h (2 Bft)
24.02.2023 12:40 5,3 C 9,2 C -39,6 C 7,7 C 7,7 C 2,4 C 89 % 83 % 1004,8 hPa 0,0 l/m 5,0 km/h (1 Bft) SW 225 0 min 3,6 C 7,1 C 6,9 km/h (2 Bft)
24.02.2023 12:45 5,5 C 9,2 C -39,6 C 7,7 C 7,7 C 2,2 C 89 % 84 % 1004,2 hPa 0,0 l/m 6,0 km/h (2 Bft) SW 225 0 min 3,8 C 6,8 C 10,3 km/h (2 Bft)
24.02.2023 12:50 5,8 C 9,1 C -39,6 C 8,6 C 8,6 C 2,8 C 89 % 84 % 1004,2 hPa 0,0 l/m 6,1 km/h (2 Bft) S 180 0 min 4,1 C 7,8 C 14,5 km/h (3 Bft)
24.02.2023 12:55 6,0 C 9,1 C -39,6 C 8,1 C 8,1 C 2,1 C 88 % 82 % 1004,2 hPa 0,0 l/m 6,6 km/h (2 Bft) SW 225 0 min 4,2 C 7,1 C 14,6 km/h (3 Bft)
24.02.2023 13:00 6,0 C 9,1 C -39,6 C 7,8 C 7,8 C 1,8 C 88 % 82 % 1004,2 hPa 0,0 l/m 6,8 km/h (2 Bft) W-SW 247 0 min 4,2 C 6,7 C 7,1 km/h (2 Bft)
24.02.2023 13:05 6,0 C 9,1 C -39,6 C 7,2 C 7,2 C 1,2 C 87 % 82 % 1004,0 hPa 0,0 l/m 6,1 km/h (2 Bft) S-SW 202 0 min 4,0 C 6,2 C 16,1 km/h (3 Bft)
24.02.2023 13:10 6,0 C 9,1 C -39,6 C 6,6 C 6,6 C 0,6 C 86 % 81 % 1004,0 hPa 0,0 l/m 7,6 km/h (2 Bft) S-SW 202 0 min 3,8 C 5,1 C 12,9 km/h (3 Bft)
24.02.2023 13:15 6,1 C 9,0 C -39,6 C 6,6 C 6,6 C 0,5 C 86 % 81 % 1004,0 hPa 0,0 l/m 8,5 km/h (2 Bft) SW 225 0 min 3,9 C 4,9 C 5,6 km/h (1 Bft)
24.02.2023 13:20 6,1 C 9,0 C -39,6 C 7,0 C 7,0 C 0,9 C 86 % 81 % 1004,0 hPa 0,0 l/m 6,1 km/h (2 Bft) S 180 0 min 3,9 C 6,0 C 10,3 km/h (2 Bft)
24.02.2023 13:25 6,3 C 9,0 C -39,6 C 8,1 C 8,1 C 1,8 C 85 % 81 % 1003,4 hPa 0,0 l/m 4,0 km/h (1 Bft) SW 225 0 min 4,0 C 8,1 C 4,2 km/h (1 Bft)
24.02.2023 13:30 6,3 C 9,0 C -39,6 C 8,0 C 8,0 C 1,7 C 84 % 80 % 1003,4 hPa 0,0 l/m 4,3 km/h (1 Bft) SW 225 0 min 3,8 C 8,0 C 6,4 km/h (2 Bft)
24.02.2023 13:35 6,4 C 9,0 C -39,6 C 8,0 C 8,0 C 1,6 C 83 % 80 % 1003,4 hPa 0,0 l/m 2,9 km/h (1 Bft) S-SW 202 0 min 3,7 C 8,0 C 4,5 km/h (1 Bft)
24.02.2023 13:40 6,4 C 9,0 C -39,6 C 8,0 C 8,0 C 1,6 C 83 % 80 % 1003,4 hPa 0,0 l/m 1,9 km/h (1 Bft) SW 225 0 min 3,7 C 8,0 C 4,3 km/h (1 Bft)
24.02.2023 13:45 6,5 C 9,0 C -39,6 C 8,0 C 8,0 C 1,5 C 82 % 79 % 1003,1 hPa 0,0 l/m 2,3 km/h (1 Bft) S-SW 202 0 min 3,7 C 8,0 C 4,7 km/h (1 Bft)
24.02.2023 13:50 6,7 C 9,0 C -39,6 C 8,0 C 8,0 C 1,3 C 82 % 79 % 1003,1 hPa 0,0 l/m 2,3 km/h (1 Bft) SW 225 0 min 3,8 C 8,0 C 0,0 km/h (0 Bft)
24.02.2023 13:55 6,7 C 9,0 C -39,6 C 7,9 C 7,9 C 1,2 C 82 % 79 % 1003,1 hPa 0,0 l/m 1,3 km/h (1 Bft) W-SW 247 0 min 3,8 C 7,9 C 5,5 km/h (1 Bft)
24.02.2023 14:00 6,7 C 9,0 C -39,6 C 7,7 C 7,7 C 1,0 C 81 % 79 % 1003,1 hPa 0,0 l/m 2,3 km/h (1 Bft) SW 225 0 min 3,7 C 7,7 C 1,8 km/h (1 Bft)
24.02.2023 14:05 6,5 C 9,0 C -39,6 C 6,6 C 6,6 C 0,1 C 80 % 80 % 1003,7 hPa 0,0 l/m 5,3 km/h (1 Bft) SW 225 0 min 3,3 C 5,8 C 12,7 km/h (3 Bft)
24.02.2023 14:11 6,4 C 9,0 C -39,6 C 7,0 C 7,0 C 0,6 C 80 % 80 % 1003,7 hPa 0,0 l/m 2,9 km/h (1 Bft) N 0 0 min 3,2 C 7,0 C 5,0 km/h (1 Bft)
24.02.2023 14:16 6,4 C 9,0 C -39,6 C 7,0 C 7,0 C 0,6 C 80 % 81 % 1003,7 hPa 0,0 l/m 2,1 km/h (1 Bft) W-SW 247 0 min 3,2 C 7,0 C 9,3 km/h (2 Bft)
24.02.2023 14:21 6,4 C 9,0 C -39,6 C 6,8 C 6,8 C 0,4 C 80 % 81 % 1002,8 hPa 0,0 l/m 2,6 km/h (1 Bft) W 270 0 min 3,2 C 6,8 C 0,0 km/h (0 Bft)
24.02.2023 14:26 6,3 C 8,9 C -39,6 C 6,8 C 6,8 C 0,5 C 79 % 81 % 1002,8 hPa 0,0 l/m 3,2 km/h (1 Bft) SW 225 0 min 2,9 C 6,8 C 11,3 km/h (2 Bft)
24.02.2023 14:31 6,3 C 8,9 C -39,6 C 6,3 C 6,2 C 0,0 C 79 % 81 % 1002,8 hPa 0,0 l/m 4,7 km/h (1 Bft) W-SW 247 0 min 2,9 C 5,6 C 7,2 km/h (2 Bft)
24.02.2023 14:32 6,3 C 8,9 C -39,6 C 6,3 C 6,2 C 0,0 C 79 % 81 % 1002,8 hPa 0,0 l/m 4,7 km/h (1 Bft) W-SW 247 0 min 2,9 C 5,6 C 7,2 km/h (2 Bft)
24.02.2023 14:35 6,3 C 8,9 C -39,6 C 6,3 C 6,2 C 0,0 C 79 % 81 % 1002,8 hPa 0,0 l/m 4,7 km/h (1 Bft) W-SW 247 0 min 2,9 C 5,6 C 7,2 km/h (2 Bft)
24.02.2023 14:40 6,2 C 8,9 C -39,6 C 6,2 C 6,2 C 0,0 C 78 % 81 % 1002,8 hPa 0,0 l/m 4,8 km/h (1 Bft) W-SW 247 0 min 2,7 C 5,5 C 5,8 km/h (2 Bft)
24.02.2023 14:45 6,2 C 8,9 C -39,6 C 6,7 C 6,7 C 0,5 C 78 % 79 % 1002,5 hPa 0,0 l/m 3,5 km/h (1 Bft) S 180 0 min 2,7 C 6,7 C 3,4 km/h (1 Bft)
24.02.2023 14:50 6,3 C 8,9 C -39,6 C 7,0 C 7,0 C 0,7 C 78 % 79 % 1002,5 hPa 0,0 l/m 3,1 km/h (1 Bft) SW 225 0 min 2,8 C 7,0 C 6,0 km/h (2 Bft)
24.02.2023 14:55 6,3 C 8,9 C -39,6 C 7,2 C 7,2 C 0,9 C 78 % 79 % 1002,5 hPa 0,0 l/m 3,1 km/h (1 Bft) SW 225 0 min 2,8 C 7,2 C 5,1 km/h (1 Bft)
24.02.2023 15:00 6,4 C 8,9 C -39,6 C 6,8 C 6,8 C 0,4 C 77 % 79 % 1002,5 hPa 0,0 l/m 4,5 km/h (1 Bft) W-SW 247 0 min 2,7 C 6,8 C 7,9 km/h (2 Bft)
24.02.2023 15:05 6,5 C 8,9 C -39,6 C 6,6 C 6,6 C 0,1 C 77 % 79 % 1002,1 hPa 0,0 l/m 5,6 km/h (1 Bft) SW 225 0 min 2,8 C 5,7 C 20,0 km/h (4 Bft)
24.02.2023 15:10 6,4 C 8,9 C -39,6 C 6,4 C 6,4 C 0,0 C 76 % 79 % 1002,1 hPa 0,0 l/m 6,0 km/h (2 Bft) NW 315 0 min 2,5 C 5,3 C 10,0 km/h (2 Bft)
24.02.2023 15:15 6,4 C 8,9 C -39,6 C 6,8 C 6,8 C 0,4 C 75 % 79 % 1002,1 hPa 0,0 l/m 5,3 km/h (1 Bft) N-NW 337 0 min 2,3 C 6,0 C 6,3 km/h (2 Bft)
24.02.2023 15:20 6,4 C 8,9 C -39,6 C 6,9 C 6,9 C 0,5 C 75 % 75 % 1002,1 hPa 0,0 l/m 4,7 km/h (1 Bft) W-SW 247 0 min 2,3 C 6,3 C 11,9 km/h (2 Bft)
24.02.2023 15:25 6,4 C 8,9 C -39,6 C 6,5 C 6,5 C 0,1 C 75 % 75 % 1002,2 hPa 0,0 l/m 5,5 km/h (1 Bft) SW 225 0 min 2,3 C 5,6 C 6,0 km/h (2 Bft)
24.02.2023 15:30 6,4 C 8,9 C -39,6 C 6,7 C 6,7 C 0,3 C 75 % 75 % 1002,2 hPa 0,0 l/m 4,8 km/h (1 Bft) SW 225 0 min 2,3 C 6,1 C 6,1 km/h (2 Bft)
24.02.2023 15:35 6,4 C 8,9 C -39,6 C 7,2 C 7,2 C 0,8 C 75 % 77 % 1002,2 hPa 0,0 l/m 3,2 km/h (1 Bft) W 270 0 min 2,3 C 7,2 C 0,0 km/h (0 Bft)
24.02.2023 15:40 6,4 C 8,8 C -39,6 C 7,1 C 7,1 C 0,7 C 75 % 77 % 1002,2 hPa 0,0 l/m 2,7 km/h (1 Bft) W-SW 247 0 min 2,3 C 7,1 C 2,7 km/h (1 Bft)
24.02.2023 15:45 6,4 C 8,8 C -39,6 C 7,0 C 7,0 C 0,6 C 75 % 77 % 1002,3 hPa 0,0 l/m 1,1 km/h (1 Bft) N-NW 337 0 min 2,3 C 7,0 C 0,0 km/h (0 Bft)
24.02.2023 15:50 6,3 C 8,8 C -39,6 C 6,8 C 6,8 C 0,5 C 75 % 77 % 1002,3 hPa 0,0 l/m 0,5 km/h (0 Bft) S-SW 202 0 min 2,2 C 6,8 C 0,0 km/h (0 Bft)
24.02.2023 15:55 6,2 C 8,8 C -39,6 C 6,7 C 6,7 C 0,5 C 76 % 78 % 1002,3 hPa 0,0 l/m 0,3 km/h (0 Bft) SW 225 0 min 2,3 C 6,7 C 3,4 km/h (1 Bft)
24.02.2023 16:00 6,3 C 8,8 C -39,6 C 6,6 C 6,6 C 0,3 C 76 % 78 % 1002,3 hPa 0,0 l/m 0,6 km/h (0 Bft) W 270 0 min 2,4 C 6,6 C 2,9 km/h (1 Bft)
24.02.2023 16:05 6,0 C 8,8 C -39,6 C 6,0 C 5,9 C 0,0 C 76 % 78 % 1002,1 hPa 0,0 l/m 0,6 km/h (0 Bft) W-SW 247 0 min 2,1 C 5,9 C 0,0 km/h (0 Bft)
24.02.2023 16:11 5,4 C 8,9 C -39,6 C 5,1 C 4,6 C 0,0 C 78 % 78 % 1002,1 hPa 0,0 l/m 0,3 km/h (0 Bft) N 0 0 min 1,9 C 4,6 C 0,0 km/h (0 Bft)
24.02.2023 16:27 4,8 C 9,0 C -39,6 C 4,5 C 3,9 C 0,0 C 81 % 78 % 1001,8 hPa 0,0 l/m 1,8 km/h (1 Bft) S-SW 202 0 min 1,8 C 3,9 C 6,8 km/h (2 Bft)
24.02.2023 16:31 4,5 C 9,3 C -39,6 C 3,9 C 2,8 C 0,0 C 82 % 83 % 1001,8 hPa 0,0 l/m 4,7 km/h (1 Bft) SW 225 0 min 1,7 C 1,7 C 10,1 km/h (2 Bft)
24.02.2023 16:36 4,4 C 9,1 C -39,6 C 3,5 C 1,8 C 0,0 C 83 % 83 % 1001,8 hPa 0,0 l/m 6,6 km/h (2 Bft) SW 225 0 min 1,8 C -0,2 C 6,8 km/h (2 Bft)
24.02.2023 16:41 4,3 C 9,1 C -39,6 C 3,5 C 1,9 C 0,0 C 83 % 83 % 1001,6 hPa 0,7 l/m 6,1 km/h (2 Bft) S 180 0 min 1,7 C 0,1 C 5,3 km/h (1 Bft)
24.02.2023 16:45 4,3 C 9,1 C -39,6 C 3,5 C 1,9 C 0,0 C 83 % 83 % 1001,6 hPa 0,0 l/m 6,1 km/h (2 Bft) S 180 0 min 1,7 C 0,1 C 5,3 km/h (1 Bft)
24.02.2023 16:50 4,2 C 9,1 C -39,6 C 3,5 C 2,2 C 0,0 C 84 % 83 % 1001,6 hPa 0,0 l/m 5,1 km/h (1 Bft) SW 225 0 min 1,7 C 0,9 C 4,8 km/h (1 Bft)
24.02.2023 16:55 4,1 C 9,1 C -39,6 C 3,7 C 2,8 C 0,0 C 84 % 83 % 1001,6 hPa 0,0 l/m 3,9 km/h (1 Bft) S-SW 202 0 min 1,6 C 2,8 C 6,3 km/h (2 Bft)
24.02.2023 17:00 4,0 C 9,1 C -39,6 C 3,8 C 3,4 C 0,0 C 85 % 83 % 1001,6 hPa 0,0 l/m 2,7 km/h (1 Bft) SW 225 0 min 1,7 C 3,4 C 1,9 km/h (1 Bft)
24.02.2023 17:05 4,0 C 9,1 C -39,6 C 3,8 C 3,4 C 0,0 C 85 % 83 % 1001,7 hPa 0,0 l/m 2,9 km/h (1 Bft) SW 225 0 min 1,7 C 3,4 C 8,2 km/h (2 Bft)
24.02.2023 17:10 4,0 C 9,1 C -39,6 C 3,8 C 3,5 C 0,0 C 85 % 86 % 1001,7 hPa 0,0 l/m 2,3 km/h (1 Bft) NW 315 0 min 1,7 C 3,5 C 4,2 km/h (1 Bft)
24.02.2023 17:15 4,0 C 9,1 C -39,6 C 3,8 C 3,3 C 0,0 C 85 % 86 % 1001,7 hPa 0,0 l/m 2,9 km/h (1 Bft) W-SW 247 0 min 1,7 C 3,3 C 2,9 km/h (1 Bft)
24.02.2023 17:20 3,9 C 9,1 C -39,6 C 3,7 C 3,2 C 0,0 C 86 % 86 % 1001,7 hPa 0,0 l/m 3,1 km/h (1 Bft) SW 225 0 min 1,8 C 3,2 C 5,3 km/h (1 Bft)
24.02.2023 17:25 3,9 C 9,2 C -39,6 C 3,6 C 2,9 C 0,0 C 86 % 86 % 1001,4 hPa 0,0 l/m 3,2 km/h (1 Bft) SW 225 0 min 1,8 C 2,9 C 5,6 km/h (1 Bft)
24.02.2023 17:30 3,7 C 9,2 C -39,6 C 3,5 C 3,2 C 0,0 C 86 % 86 % 1001,4 hPa 0,7 l/m 2,3 km/h (1 Bft) SW 225 0 min 1,6 C 3,2 C 4,3 km/h (1 Bft)
24.02.2023 17:35 3,7 C 9,2 C -39,6 C 3,5 C 3,2 C 0,0 C 86 % 86 % 1001,4 hPa 0,0 l/m 1,8 km/h (1 Bft) W-SW 247 0 min 1,6 C 3,2 C 5,1 km/h (1 Bft)
24.02.2023 17:40 3,6 C 9,2 C -39,6 C 3,4 C 3,1 C 0,0 C 86 % 86 % 1001,4 hPa 0,0 l/m 2,1 km/h (1 Bft) W 270 0 min 1,5 C 3,1 C 5,1 km/h (1 Bft)
24.02.2023 17:45 3,6 C 9,2 C -39,6 C 3,4 C 2,9 C 0,0 C 87 % 86 % 1001,4 hPa 0,0 l/m 3,1 km/h (1 Bft) SO 135 0 min 1,6 C 2,9 C 10,6 km/h (2 Bft)
24.02.2023 17:50 3,6 C 9,2 C -39,6 C 3,3 C 2,7 C 0,0 C 87 % 86 % 1001,4 hPa 0,0 l/m 3,2 km/h (1 Bft) SW 225 0 min 1,6 C 2,7 C 4,5 km/h (1 Bft)
24.02.2023 17:55 3,5 C 9,2 C -39,6 C 3,3 C 2,9 C 0,0 C 87 % 86 % 1001,4 hPa 0,0 l/m 2,4 km/h (1 Bft) S-SW 202 0 min 1,5 C 2,9 C 0,0 km/h (0 Bft)
24.02.2023 18:00 3,4 C 9,2 C -39,6 C 3,2 C 2,9 C 0,0 C 87 % 84 % 1001,4 hPa 0,0 l/m 1,8 km/h (1 Bft) S-SW 202 0 min 1,4 C 2,9 C 0,0 km/h (0 Bft)
24.02.2023 18:05 3,4 C 9,2 C -39,6 C 3,2 C 2,8 C 0,0 C 87 % 84 % 1000,8 hPa 0,0 l/m 2,3 km/h (1 Bft) SW 225 0 min 1,4 C 2,8 C 2,6 km/h (1 Bft)
24.02.2023 18:11 3,3 C 9,2 C -39,6 C 3,1 C 2,7 C 0,0 C 87 % 84 % 1000,8 hPa 0,7 l/m 2,9 km/h (1 Bft) N 0 0 min 1,3 C 2,7 C 8,7 km/h (2 Bft)
24.02.2023 18:26 3,1 C 9,1 C -39,6 C 2,3 C 0,8 C 0,0 C 88 % 84 % 1001,3 hPa 0,7 l/m 6,4 km/h (2 Bft) W-SW 247 0 min 1,3 C -1,3 C 11,4 km/h (2 Bft)
24.02.2023 18:27 3,1 C 9,1 C -39,6 C 2,3 C 0,8 C 0,0 C 88 % 84 % 1001,3 hPa 0,0 l/m 6,4 km/h (2 Bft) W-SW 247 0 min 1,3 C -1,3 C 11,4 km/h (2 Bft)
24.02.2023 18:41 2,9 C 9,1 C -39,6 C 2,2 C 0,8 C 0,0 C 88 % 87 % 1001,1 hPa 0,0 l/m 5,8 km/h (2 Bft) SW 225 0 min 1,1 C -1,0 C 10,1 km/h (2 Bft)
24.02.2023 18:42 2,9 C 9,1 C -39,6 C 2,2 C 0,8 C 0,0 C 88 % 87 % 1001,1 hPa 0,0 l/m 5,8 km/h (2 Bft) SW 225 0 min 1,1 C -1,0 C 10,1 km/h (2 Bft)
24.02.2023 18:45 2,9 C 9,1 C -39,6 C 2,2 C 0,8 C 0,0 C 88 % 87 % 1001,1 hPa 0,0 l/m 5,8 km/h (2 Bft) SW 225 0 min 1,1 C -1,0 C 10,1 km/h (2 Bft)
24.02.2023 18:50 2,9 C 9,0 C -39,6 C 2,2 C 0,7 C 0,0 C 88 % 87 % 1001,1 hPa 0,0 l/m 6,0 km/h (2 Bft) S 180 0 min 1,1 C -1,2 C 7,4 km/h (2 Bft)
24.02.2023 18:55 2,9 C 9,0 C -39,6 C 2,2 C 0,9 C 0,0 C 88 % 87 % 1001,1 hPa 0,0 l/m 5,5 km/h (1 Bft) W 270 0 min 1,1 C -0,8 C 5,3 km/h (1 Bft)
24.02.2023 19:00 2,8 C 9,0 C -39,6 C 2,3 C 1,2 C 0,0 C 88 % 87 % 1001,1 hPa 0,7 l/m 4,8 km/h (1 Bft) S 180 0 min 1,0 C -0,1 C 8,9 km/h (2 Bft)
24.02.2023 19:05 2,8 C 9,0 C -39,6 C 2,0 C 0,4 C 0,0 C 88 % 87 % 1001,1 hPa 0,0 l/m 6,4 km/h (2 Bft) SW 225 0 min 1,0 C -1,7 C 12,1 km/h (2 Bft)
24.02.2023 19:10 2,7 C 9,0 C -39,6 C 2,1 C -0,1 C 0,0 C 89 % 87 % 1001,1 hPa 0,0 l/m 7,9 km/h (2 Bft) S-SW 202 0 min 1,1 C -2,8 C 15,1 km/h (3 Bft)
24.02.2023 19:15 2,7 C 9,0 C -39,6 C 2,0 C -0,3 C 0,0 C 89 % 88 % 1001,1 hPa 0,7 l/m 8,2 km/h (2 Bft) SW 225 0 min 1,1 C -3,2 C 1,9 km/h (1 Bft)
24.02.2023 19:20 2,5 C 9,0 C -39,6 C 1,7 C 0,1 C 0,0 C 89 % 88 % 1001,1 hPa 0,0 l/m 6,6 km/h (2 Bft) SW 225 0 min 0,9 C -2,1 C 8,2 km/h (2 Bft)
24.02.2023 19:25 2,4 C 8,9 C -39,6 C 1,9 C 0,8 C 0,0 C 89 % 88 % 1000,7 hPa 0,0 l/m 4,7 km/h (1 Bft) SW 225 0 min 0,8 C -0,5 C 7,7 km/h (2 Bft)
24.02.2023 19:30 2,4 C 8,9 C -39,6 C 1,7 C 0,4 C 0,0 C 89 % 88 % 1000,7 hPa 0,7 l/m 5,5 km/h (1 Bft) W-SW 247 0 min 0,8 C -1,4 C 0,0 km/h (0 Bft)
24.02.2023 19:35 2,4 C 8,9 C -39,6 C 1,9 C 0,9 C 0,0 C 89 % 87 % 1000,7 hPa 0,0 l/m 4,5 km/h (1 Bft) SW 225 0 min 0,8 C 0,9 C 13,5 km/h (3 Bft)
24.02.2023 19:40 2,5 C 8,9 C -39,6 C 2,0 C 1,0 C 0,0 C 89 % 87 % 1000,7 hPa 0,0 l/m 4,3 km/h (1 Bft) SO 135 0 min 0,9 C 1,0 C 4,7 km/h (1 Bft)
24.02.2023 19:45 2,4 C 8,9 C -39,6 C 1,8 C 0,6 C 0,0 C 89 % 87 % 1000,9 hPa 0,7 l/m 5,3 km/h (1 Bft) S 180 0 min 0,8 C -1,0 C 3,9 km/h (1 Bft)
24.02.2023 19:50 2,3 C 8,9 C -39,6 C 1,6 C 0,3 C 0,0 C 89 % 87 % 1000,9 hPa 0,0 l/m 5,1 km/h (1 Bft) SW 225 0 min 0,7 C -1,3 C 6,1 km/h (2 Bft)
24.02.2023 19:55 2,3 C 8,9 C -39,6 C 2,0 C 1,4 C 0,0 C 89 % 87 % 1000,9 hPa 0,0 l/m 3,1 km/h (1 Bft) W-SW 247 0 min 0,7 C 1,4 C 3,9 km/h (1 Bft)
24.02.2023 20:00 2,3 C 8,9 C -39,6 C 2,1 C 1,7 C 0,0 C 89 % 87 % 1000,9 hPa 0,0 l/m 2,9 km/h (1 Bft) S 180 0 min 0,7 C 1,7 C 8,7 km/h (2 Bft)
24.02.2023 20:05 2,3 C 8,9 C -39,6 C 2,0 C 1,3 C 0,0 C 89 % 87 % 1001,5 hPa 0,0 l/m 4,0 km/h (1 Bft) S 180 0 min 0,7 C 1,3 C 5,8 km/h (2 Bft)
24.02.2023 20:10 2,4 C 8,9 C -39,6 C 2,0 C 1,2 C 0,0 C 89 % 87 % 1001,5 hPa 0,0 l/m 4,5 km/h (1 Bft) W-SW 247 0 min 0,8 C 1,2 C 7,7 km/h (2 Bft)
24.02.2023 20:15 2,4 C 8,8 C -39,6 C 2,0 C 1,1 C 0,0 C 89 % 87 % 1001,5 hPa 0,0 l/m 4,8 km/h (1 Bft) SW 225 0 min 0,8 C -0,2 C 15,9 km/h (3 Bft)
24.02.2023 20:20 2,5 C 8,8 C -39,6 C 1,9 C 0,8 C 0,0 C 89 % 87 % 1001,5 hPa 0,0 l/m 5,3 km/h (1 Bft) S-SW 202 0 min 0,9 C -0,8 C 16,1 km/h (3 Bft)
24.02.2023 20:25 2,5 C 8,8 C -39,6 C 2,1 C 1,3 C 0,0 C 89 % 84 % 1000,9 hPa 0,0 l/m 4,7 km/h (1 Bft) SW 225 0 min 0,9 C 0,0 C 3,1 km/h (1 Bft)
24.02.2023 20:30 2,6 C 8,8 C -39,6 C 2,2 C 1,5 C 0,0 C 89 % 84 % 1000,9 hPa 0,0 l/m 4,2 km/h (1 Bft) SW 225 0 min 1,0 C 1,5 C 4,2 km/h (1 Bft)
24.02.2023 20:35 2,7 C 8,8 C -39,6 C 2,1 C 0,9 C 0,0 C 89 % 84 % 1000,9 hPa 0,0 l/m 5,8 km/h (2 Bft) S-SW 202 0 min 1,1 C -0,9 C 11,7 km/h (2 Bft)
24.02.2023 20:40 2,7 C 8,8 C -39,6 C 2,2 C 1,1 C 0,0 C 89 % 84 % 1000,9 hPa 0,0 l/m 5,3 km/h (1 Bft) W-SW 247 0 min 1,1 C -0,5 C 7,6 km/h (2 Bft)
24.02.2023 20:45 2,7 C 8,8 C -39,6 C 2,2 C 1,2 C 0,0 C 89 % 84 % 1000,3 hPa 0,0 l/m 5,0 km/h (1 Bft) W-SW 247 0 min 1,1 C -0,2 C 5,1 km/h (1 Bft)
24.02.2023 20:50 2,6 C 8,8 C -39,6 C 2,1 C 1,2 C 0,0 C 89 % 85 % 1000,3 hPa 0,0 l/m 5,0 km/h (1 Bft) S-SW 202 0 min 1,0 C -0,2 C 9,5 km/h (2 Bft)
24.02.2023 20:55 2,7 C 8,8 C -39,6 C 2,2 C 1,2 C 0,0 C 89 % 85 % 1000,3 hPa 0,0 l/m 5,0 km/h (1 Bft) S 180 0 min 1,1 C -0,2 C 9,3 km/h (2 Bft)
24.02.2023 21:00 2,7 C 8,8 C -39,6 C 2,2 C 1,2 C 0,0 C 89 % 85 % 1000,3 hPa 0,0 l/m 5,0 km/h (1 Bft) S-SO 157 0 min 1,1 C -0,2 C 3,1 km/h (1 Bft)
24.02.2023 21:05 2,7 C 8,8 C -39,6 C 2,3 C 1,4 C 0,0 C 89 % 85 % 1000,6 hPa 0,0 l/m 4,8 km/h (1 Bft) SW 225 0 min 1,1 C 0,1 C 5,6 km/h (1 Bft)
24.02.2023 21:10 2,7 C 8,7 C -39,6 C 2,2 C 1,2 C 0,0 C 89 % 85 % 1000,6 hPa 0,0 l/m 5,5 km/h (1 Bft) W-SW 247 0 min 1,1 C -0,4 C 9,8 km/h (2 Bft)
24.02.2023 21:15 2,7 C 8,7 C -39,6 C 2,3 C 1,5 C 0,0 C 89 % 85 % 1000,6 hPa 0,0 l/m 5,0 km/h (1 Bft) W-SW 247 0 min 1,1 C 0,1 C 7,6 km/h (2 Bft)
24.02.2023 21:20 2,7 C 8,7 C -39,6 C 2,3 C 1,4 C 0,0 C 89 % 85 % 1000,6 hPa 0,0 l/m 5,3 km/h (1 Bft) SW 225 0 min 1,1 C -0,1 C 2,9 km/h (1 Bft)
24.02.2023 21:25 2,8 C 8,7 C -39,6 C 2,3 C 1,3 C 0,0 C 89 % 87 % 1000,6 hPa 0,0 l/m 6,0 km/h (2 Bft) SW 225 0 min 1,2 C -0,5 C 6,4 km/h (2 Bft)
24.02.2023 21:30 2,8 C 8,7 C -39,6 C 2,3 C 1,3 C 0,0 C 89 % 87 % 1000,6 hPa 0,0 l/m 6,3 km/h (2 Bft) SW 225 0 min 1,2 C -0,6 C 10,3 km/h (2 Bft)
24.02.2023 21:35 2,8 C 8,7 C -39,6 C 2,4 C 1,5 C 0,0 C 89 % 87 % 1000,6 hPa 0,0 l/m 5,8 km/h (2 Bft) N 360 0 min 1,2 C -0,2 C 5,5 km/h (1 Bft)
24.02.2023 21:40 2,9 C 8,7 C -39,6 C 2,5 C 1,7 C 0,0 C 89 % 87 % 1000,6 hPa 0,0 l/m 5,5 km/h (1 Bft) SW 225 0 min 1,3 C 0,1 C 7,1 km/h (2 Bft)
24.02.2023 21:45 2,8 C 8,7 C -39,6 C 2,5 C 1,9 C 0,0 C 89 % 87 % 1000,4 hPa 0,0 l/m 5,0 km/h (1 Bft) W-SW 247 0 min 1,2 C 0,6 C 10,1 km/h (2 Bft)
24.02.2023 21:50 2,9 C 8,7 C -39,6 C 2,7 C 2,2 C 0,0 C 89 % 87 % 1000,4 hPa 0,0 l/m 4,7 km/h (1 Bft) SW 225 0 min 1,3 C 1,0 C 7,6 km/h (2 Bft)
24.02.2023 21:55 2,8 C 8,5 C -39,6 C 2,5 C 2,0 C 0,0 C 89 % 87 % 1000,4 hPa 0,0 l/m 5,3 km/h (1 Bft) SW 225 0 min 1,2 C 0,6 C 6,4 km/h (2 Bft)
24.02.2023 22:00 2,8 C 8,5 C -39,6 C 2,6 C 2,1 C 0,0 C 89 % 87 % 1000,4 hPa 0,0 l/m 5,0 km/h (1 Bft) SW 225 0 min 1,2 C 0,8 C 0,0 km/h (0 Bft)
24.02.2023 22:05 2,8 C 8,5 C -39,6 C 2,7 C 2,6 C 0,0 C 89 % 87 % 999,8 hPa 0,0 l/m 4,0 km/h (1 Bft) SW 225 0 min 1,2 C 2,6 C 6,9 km/h (2 Bft)
24.02.2023 22:10 2,8 C 8,5 C -39,6 C 2,8 C 2,8 C 0,0 C 89 % 87 % 999,8 hPa 0,0 l/m 3,5 km/h (1 Bft) S 180 0 min 1,2 C 2,8 C 6,0 km/h (2 Bft)
24.02.2023 22:15 2,9 C 8,5 C -39,6 C 2,6 C 2,1 C 0,0 C 89 % 87 % 999,8 hPa 0,0 l/m 5,5 km/h (1 Bft) SW 225 0 min 1,3 C 0,6 C 14,2 km/h (3 Bft)
24.02.2023 22:20 2,9 C 8,5 C -39,6 C 2,5 C 1,6 C 0,0 C 89 % 87 % 999,8 hPa 0,0 l/m 6,9 km/h (2 Bft) S 180 0 min 1,3 C -0,5 C 9,8 km/h (2 Bft)
24.02.2023 22:25 2,9 C 8,4 C -39,6 C 2,5 C 1,8 C 0,0 C 89 % 87 % 1000,0 hPa 0,0 l/m 6,4 km/h (2 Bft) W-SW 247 0 min 1,3 C -0,1 C 8,4 km/h (2 Bft)
24.02.2023 22:30 2,9 C 8,5 C -39,6 C 2,6 C 1,9 C 0,0 C 89 % 87 % 1000,0 hPa 0,0 l/m 5,6 km/h (1 Bft) S-SW 202 0 min 1,3 C 0,3 C 3,4 km/h (1 Bft)
24.02.2023 22:35 3,0 C 8,4 C -39,6 C 2,5 C 1,5 C 0,0 C 89 % 87 % 1000,0 hPa 0,0 l/m 6,4 km/h (2 Bft) SW 225 0 min 1,4 C -0,4 C 13,7 km/h (3 Bft)
24.02.2023 22:40 3,0 C 8,4 C -39,6 C 2,4 C 1,3 C 0,0 C 89 % 86 % 1000,0 hPa 0,0 l/m 7,2 km/h (2 Bft) SW 225 0 min 1,4 C -1,0 C 9,0 km/h (2 Bft)
24.02.2023 22:45 3,1 C 8,3 C -39,6 C 2,6 C 1,5 C 0,0 C 89 % 86 % 1000,1 hPa 0,0 l/m 7,1 km/h (2 Bft) S-SW 202 0 min 1,5 C -0,7 C 9,7 km/h (2 Bft)
24.02.2023 22:50 3,1 C 8,3 C -39,6 C 2,7 C 2,0 C 0,0 C 89 % 86 % 1000,1 hPa 0,0 l/m 6,0 km/h (2 Bft) SW 225 0 min 1,5 C 0,3 C 2,4 km/h (1 Bft)
24.02.2023 22:55 3,0 C 8,4 C -39,6 C 2,6 C 1,9 C 0,0 C 89 % 86 % 1000,1 hPa 0,0 l/m 5,8 km/h (2 Bft) W-SW 247 0 min 1,4 C 0,2 C 10,0 km/h (2 Bft)
24.02.2023 23:00 3,1 C 8,4 C -39,6 C 2,7 C 1,9 C 0,0 C 89 % 86 % 1000,1 hPa 0,0 l/m 5,5 km/h (1 Bft) S-SW 202 0 min 1,5 C 0,4 C 8,5 km/h (2 Bft)
24.02.2023 23:05 3,1 C 8,3 C -39,6 C 2,6 C 1,5 C 0,0 C 89 % 86 % 1000,4 hPa 0,0 l/m 5,8 km/h (2 Bft) S 180 0 min 1,5 C -0,2 C 6,3 km/h (2 Bft)
24.02.2023 23:10 3,1 C 8,3 C -39,6 C 2,6 C 1,5 C 0,0 C 89 % 86 % 1000,4 hPa 0,0 l/m 5,8 km/h (2 Bft) W-SW 247 0 min 1,5 C -0,2 C 8,9 km/h (2 Bft)
24.02.2023 23:15 3,1 C 8,3 C -39,6 C 2,7 C 1,8 C 0,0 C 89 % 86 % 1000,4 hPa 0,0 l/m 5,3 km/h (1 Bft) SW 225 0 min 1,5 C 0,3 C 4,3 km/h (1 Bft)
24.02.2023 23:20 3,0 C 8,3 C -39,6 C 2,7 C 2,1 C 0,0 C 89 % 86 % 1000,4 hPa 0,0 l/m 4,8 km/h (1 Bft) SW 225 0 min 1,4 C 0,9 C 4,0 km/h (1 Bft)
24.02.2023 23:25 3,1 C 8,3 C -39,6 C 2,8 C 2,2 C 0,0 C 89 % 86 % 999,8 hPa 0,0 l/m 4,2 km/h (1 Bft) N 360 0 min 1,5 C 2,2 C 4,5 km/h (1 Bft)
24.02.2023 23:30 3,1 C 8,3 C -39,6 C 2,5 C 1,4 C 0,0 C 89 % 86 % 999,8 hPa 0,0 l/m 5,3 km/h (1 Bft) SW 225 0 min 1,5 C -0,1 C 9,3 km/h (2 Bft)
24.02.2023 23:35 2,9 C 8,4 C -39,6 C 2,3 C 1,2 C 0,0 C 89 % 86 % 999,8 hPa 0,0 l/m 5,1 km/h (1 Bft) S-SW 202 0 min 1,3 C -0,3 C 5,8 km/h (2 Bft)
24.02.2023 23:40 2,8 C 8,4 C -39,6 C 2,2 C 1,1 C 0,0 C 89 % 86 % 999,8 hPa 0,0 l/m 5,0 km/h (1 Bft) W-SW 247 0 min 1,2 C -0,3 C 5,1 km/h (1 Bft)
24.02.2023 23:45 2,8 C 8,5 C -39,6 C 2,1 C 0,7 C 0,0 C 89 % 86 % 999,6 hPa 0,0 l/m 5,6 km/h (1 Bft) SW 225 0 min 1,2 C -1,1 C 10,3 km/h (2 Bft)
24.02.2023 23:50 2,7 C 8,5 C -39,6 C 2,1 C 1,0 C 0,0 C 89 % 86 % 999,6 hPa 0,0 l/m 5,0 km/h (1 Bft) S-SW 202 0 min 1,1 C -0,5 C 4,0 km/h (1 Bft)
24.02.2023 23:55 2,7 C 8,6 C -39,6 C 2,4 C 1,8 C 0,0 C 89 % 86 % 999,6 hPa 0,7 l/m 3,4 km/h (1 Bft) SW 225 0 min 1,1 C 1,8 C 0,0 km/h (0 Bft)
_ Min-Zeit 10:05 22:45 00:00 19:50 19:15 05:55 15:15 11:41 23:45 - 00:10 - - - 10:05 19:15 00:05
Minimum _ 2,2 C 8,3 C -39,6 C 1,6 C -0,3 C 0,0 C 75 % 0 % 999,6 hPa - 0,0 km/h (0 Bft) - - - 0,6 C -3,2 C 0,0 km/h (0 Bft)
_ Max-Zeit 00:00 00:00 11:41 12:50 12:50 12:11 00:00 00:21 00:05 04:55 13:15 - - 07:20 00:00 12:11 15:05
Maximum _ 7,3 C 10,3 C 0,0 C 8,6 C 8,6 C 4,0 C 89 % 92 % 1011,5 hPa 0,7 l/m 8,5 km/h
SW (2 Bft)
- - 5 min 5,6 C 8,5 C 20,0 km/h
SW (4 Bft)
Durchschnitt _ 4,3 C 9,5 C -39,4 C 4,6 C 4,3 C 0,5 C 87 % 86 % 1005,1 hPa #7,6 l/m 2,4 km/h (1 Bft) SW - #30 min. 2,3 C 3,9 C 3,8 km/h (1 Bft)
2023 www.wetterstation-wechselburg.de